Location: Brent
(51.5500°N, 0.2667°W)
Time: 04:04:26
(UTC+00:00)

Daily predictions for brighter satellites

Satellite Brightness Start Highest point End
(mag) Time Altitude Azimuth Time Altitude Azimuth Time Altitude Azimuth
Cosmos 2228 Rocket 4.0 00:05:20 27° SE 00:07:07 39° E 00:11:18 10° NNE
Meteor 1-12 Rocket 4.5 00:02:19 10° N 00:08:12 73° ENE 00:11:47 25° SSE
Cosmos 2082 Rocket 3.3 00:07:01 23° SSE 00:09:24 32° ESE 00:14:25 10° NE
Helios 1A Rocket 4.3 00:07:43 16° ESE 00:10:10 30° ENE 00:13:34 10° N
Cosmos 1833 Rocket 2.6 00:08:10 27° SSW 00:11:22 89° WNW 00:17:01 10° NNE
BREEZE-M DEB (TANK) 3.8 00:13:11 32° SSE 00:13:11 32° SSE 00:17:28 10° ESE
Cosmos 724 4.5 00:12:03 30° S 00:14:48 55° ESE 00:20:29 10° NE
Cosmos 1908 3.6 00:11:57 10° NNW 00:15:23 45° W 00:16:07 39° SW
PSLV R/B 3.9 00:20:07 10° N 00:24:38 61° WNW 00:26:44 29° SW
Cosmos 1842 4.4 00:23:50 24° WSW 00:25:16 32° WNW 00:28:38 10° N
Cosmos 1140 Rocket 3.5 00:22:27 28° SSW 00:25:16 79° WNW 00:30:32 10° NNE
USA 267 3.2 00:18:45 10° ENE 00:25:18 68° SE 00:30:21 18° SW
Cosmos 1441 Rocket 3.3 00:22:48 10° NNW 00:26:18 52° W 00:27:04 43° SW
NOSS 3-3 (A) 4.2 00:21:40 14° WSW 00:26:41 69° NW 00:33:24 10° NE
Cosmos 1707 3.5 00:26:20 28° WSW 00:27:36 38° WNW 00:31:04 10° N
Cosmos 1674 4.1 00:26:29 20° WSW 00:27:49 25° WNW 00:30:47 10° NNW
Cosmos 1455 4.3 00:26:15 10° NNE 00:28:48 19° ENE 00:31:18 10° ESE
Cosmos 1869 Rocket 4.1 00:25:34 10° NNW 00:29:43 45° W 00:31:14 32° SW
Iridium 51 4.4 00:28:15 37° S 00:29:55 89° ESE 00:34:24 10° N
Cosmos 1733 Rocket 3.1 00:25:35 10° N 00:29:55 75° ENE 00:31:54 32° SSE
Resurs 1-4 Rocket 4.4 00:29:16 10° ENE 00:31:44 13° E 00:34:11 10° ESE
GP-B 3.2 00:28:51 10° N 00:33:14 66° W 00:35:02 34° SSW
Cosmos 1400 Rocket 2.9 00:32:16 38° SSE 00:33:39 66° E 00:37:37 10° NNE
H-2A R/B 2.5 00:32:31 10° N 00:36:54 58° WNW 00:38:59 29° SW
Cosmos 2278 4.5 00:34:08 10° NNW 00:39:44 51° NE 00:45:18 10° SE
ALOS 2 4.5 00:38:41 15° WSW 00:40:08 18° W 00:43:07 10° NW
NOSS 3-4 (A) 3.9 00:34:38 10° NW 00:41:19 59° SW 00:47:10 18° SSE
NOSS 3-4 (C) 3.9 00:34:44 10° NW 00:41:25 60° SW 00:47:19 18° SSE
Cosmos 1346 Rocket 2.9 00:39:38 10° N 00:43:32 67° ENE 00:45:17 30° SSE
Cosmos 468 Rocket 4.0 00:41:01 10° NNW 00:46:21 89° WSW 00:49:48 22° SSE
Cosmos 2315 Rocket 4.3 00:40:49 10° NNW 00:46:56 55° W 00:50:26 26° SSW
Cosmos 2251 Rocket 3.5 00:44:26 28° SSW 00:47:15 82° WNW 00:52:35 10° NNE
Cosmos 407 Rocket 3.6 00:44:27 27° SSW 00:47:23 76° WNW 00:52:41 10° NNE
Cosmos 1954 Rocket 4.4 00:48:42 27° S 00:51:24 55° ESE 00:56:35 10° NNE
Cosmos 2333 Rocket 4.1 00:47:14 10° NNW 00:52:13 30° NE 00:57:12 10° ESE
Cosmos 1190 Rocket 4.0 00:51:10 29° S 00:53:54 74° ESE 00:59:13 10° NNE
Meteor 1-4 Rocket 4.1 00:53:08 16° ESE 00:54:05 19° E 00:56:17 10° NE
CZ-2C R/B 4.3 00:49:55 10° ESE 00:54:20 30° ENE 00:58:48 10° N
Cosmos 1763 Rocket 3.7 00:50:30 10° NNW 00:55:42 55° WSW 00:58:19 28° S
Cosmos 2285 Rocket 4.3 00:51:49 21° SW 00:56:09 62° WNW 01:02:28 10° NNE
Cosmos 2322 Rocket 3.6 00:52:02 10° NNW 00:57:20 39° NE 01:02:37 10° ESE
Cosmos 1300 2.9 00:55:00 10° NNW 00:58:27 48° W 00:59:22 37° SW
Cosmos 1953 2.8 00:59:07 10° N 01:02:59 55° ENE 01:05:20 22° SSE
USA 234 3.4 00:56:42 10° SSE 01:03:01 50° SW 01:09:23 10° WNW
SL-14 R/B 3.3 01:01:39 34° SSW 01:03:09 64° WNW 01:06:59 10° N
SL-8 R/B 4.0 00:58:55 10° W 01:03:26 42° SSW 01:07:55 10° SE
Cosmos 1697 Rocket 4.0 00:59:34 10° NW 01:03:55 23° WSW 01:05:45 20° SW
Cosmos 1862 Rocket 3.5 01:04:13 32° SSW 01:06:13 80° WNW 01:10:34 10° N
Meteor 1-23 Rocket 4.5 01:03:41 25° SW 01:06:58 60° WNW 01:12:33 10° N
Aureole 3 2.5 01:09:14 48° SSW 01:09:56 75° W 01:12:57 10° N
Cosmos 1980 Rocket 2.8 01:06:03 10° NW 01:11:20 40° WSW 01:14:01 25° SSW
Nadezhda 1 Rocket 4.3 01:06:19 10° N 01:12:45 71° ENE 01:18:17 14° SSE
Cosmos 540 Rocket 3.7 01:09:07 10° NNW 01:14:08 52° WSW 01:16:52 25° S
Cosmos 1758 4.4 01:14:53 10° NNW 01:18:13 29° W 01:19:20 24° WSW
ADEOS II 4.1 01:15:14 10° NE 01:19:09 21° E 01:23:02 10° SE
Cosmos 1607 4.4 01:14:39 14° WSW 01:20:14 63° NW 01:26:42 10° NE
MOZ.5/SAFIR/RUBIN 5/SL-8 3.8 01:18:21 19° SSE 01:21:46 86° ENE 01:26:31 10° NNW
Cosmos 2369 4.2 01:17:04 10° NW 01:22:26 42° WSW 01:25:30 23° SSW
COSMOS 2406 3.2 01:19:32 24° SSW 01:23:09 85° ESE 01:28:57 10° NNE
Lacrosse 5 rocket 1.1 01:19:30 10° WNW 01:23:39 77° SSW 01:27:36 10° SE
Cosmos 1356 Rocket 3.5 01:22:17 29° SSW 01:24:13 64° WNW 01:28:20 10° N
IDEFIX/ARIANE 42P 3.5 01:19:30 10° NNE 01:24:31 42° E 01:28:28 15° SSE
Meteor 1-16 Rocket 4.4 01:24:27 10° NNW 01:30:01 60° W 01:33:51 21° S
Cosmos 1707 Rocket 4.4 01:28:29 22° SW 01:30:49 40° WNW 01:35:04 10° N
Okean 1-7 2.9 01:30:04 26° SSW 01:32:26 85° W 01:36:47 10° N
Okean 3 3.9 01:34:53 25° SW 01:36:58 49° WNW 01:40:58 10° N
ATLAS 2AS CENTAUR R/B 3.7 01:31:49 10° NW 01:38:35 50° NNE 01:45:04 10° ESE
Cosmos 1315 Rocket 2.8 01:39:37 24° S 01:41:52 74° E 01:45:47 10° NNE
SL-16 R/B 2.2 01:36:18 10° NNW 01:42:01 83° WSW 01:47:41 10° SSE
CZ-2C R/B 4.4 01:37:30 10° NNE 01:42:54 38° E 01:48:12 10° SSE
SJ 16-02 3.2 01:40:02 10° SSE 01:43:21 22° E 01:46:41 10° NE
Helios 1A Rocket 3.8 01:43:06 23° SW 01:44:30 30° W 01:47:56 10° NW
Cosmos 2228 Rocket 4.5 01:42:45 16° WSW 01:45:23 28° WNW 01:49:17 10° N
Cosmos 1850 Rocket 4.4 01:46:14 18° S 01:50:05 56° ESE 01:55:15 10° NNE
Orbus 7S? 4.2 01:48:21 10° W 01:51:05 34° NNW 01:53:42 10° NE
Cosmos 2082 Rocket 2.7 01:48:50 17° SW 01:53:14 55° NW 01:58:53 10° NNE
Cosmos 2219 Rocket 3.5 01:49:40 10° NNW 01:55:02 42° NE 02:00:24 10° ESE
Cosmos 1741 Rocket 4.4 01:51:18 17° S 01:55:12 58° ESE 02:00:23 10° NNE
Cosmos 1709 Rocket 4.2 01:49:42 14° S 01:55:13 71° E 02:01:34 10° NNE
Cosmos 1782 Rocket 3.5 01:51:37 10° NNW 01:56:02 83° W 01:59:38 15° S
Cosmos 1908 Rocket 4.0 01:52:27 10° NNW 01:56:42 45° W 01:59:24 20° SSW
SL-16 R/B 3.2 01:51:35 10° SE 01:57:41 57° ENE 02:03:48 10° N
CZ-2D R/B 2.6 01:52:29 10° NNE 01:57:55 58° ESE 02:02:42 13° S
Cosmos 2237 4.4 01:56:09 10° NW 02:01:45 55° WSW 02:07:19 10° S
Cosmos 1455 2.7 02:00:13 10° NNW 02:03:25 35° W 02:05:03 22° SW
Cosmos 2360 Rocket 2.4 01:58:22 10° NNW 02:04:05 78° ENE 02:09:46 10° SE
Meteor 1-28 Rocket 4.2 02:01:09 10° SE 02:04:33 44° ENE 02:07:58 10° N
Cosmos 968 Rocket 4.0 02:02:10 14° S 02:06:20 52° ESE 02:11:19 10° NNE
RESURS DK-1 3.0 02:04:14 10° NNW 02:08:15 56° NE 02:12:16 10° SE
USA 267 3.7 02:01:53 10° ENE 02:08:20 65° NNW 02:14:48 10° W
MSX 3.9 02:05:09 10° NNE 02:10:56 81° ESE 02:16:00 14° SSW
Cosmos 841 Rocket 4.1 02:07:31 10° NW 02:12:20 38° WSW 02:16:19 14° SSW
Resurs 1-4 Rocket 2.2 02:07:07 10° NNE 02:12:25 78° ESE 02:17:04 13° S
H-2A R/B 3.4 02:12:48 10° N 02:16:48 71° WNW 02:19:49 17° SSW
FENGYUN 3A 4.1 02:16:29 10° NNE 02:21:49 58° ESE 02:27:05 10° S
COBE Rocket 4.1 02:18:40 10° N 02:23:28 62° WNW 02:27:39 14° SSW
Cosmos 2278 4.4 02:18:35 10° NW 02:23:41 34° WSW 02:28:37 11° S
Meteor 1-4 Rocket 3.6 02:25:17 15° WSW 02:26:58 24° WNW 02:29:28 10° NNW
SL-24 R/B 4.4 02:29:12 10° S 02:34:05 89° WSW 02:38:57 10° N
CZ-2C R/B 2.8 02:29:24 10° S 02:34:24 50° W 02:39:28 10° NNW
Cosmos 2242 Rocket 3.6 02:30:52 12° SSW 02:34:53 76° W 02:39:25 10° N
Cosmos 2333 Rocket 2.2 02:31:19 10° NW 02:37:01 71° WSW 02:42:43 10° SSE
Sich 1 Rocket 4.3 02:32:49 10° N 02:37:17 56° ENE 02:41:41 10° SSE
Cosmos 2098 Rocket 3.6 02:32:39 10° NNW 02:37:42 82° W 02:43:41 10° S
Timation 1 Rocket 4.4 02:32:20 13° SSW 02:37:47 86° ESE 02:43:46 10° NNE
Cosmos 1953 4.2 02:36:02 10° NW 02:38:23 16° W 02:40:27 11° WSW
Cosmos 1825 4.3 02:35:46 10° SE 02:38:25 21° E 02:41:05 10° NE
Cosmos 2151 Rocket 4.1 02:35:21 10° N 02:39:50 64° ENE 02:44:15 10° SSE
Cosmos 1814 Rocket 4.1 02:35:44 10° NNW 02:40:50 58° WSW 02:45:59 10° S
Cosmos 2322 Rocket 2.5 02:36:06 10° NW 02:41:32 48° WSW 02:46:56 10° S
Cosmos 2292 4.3 02:38:34 10° N 02:41:39 87° E 02:45:14 10° S
SL-27 R/B 2.2 02:40:26 13° S 02:42:52 61° ESE 02:45:40 10° NNE
Cosmos 1892 4.3 02:41:25 10° SSE 02:44:28 29° E 02:47:33 10° NNE
NPP 4.1 02:41:45 10° N 02:46:57 50° WNW 02:52:03 10° SW
Cosmos 1242 Rocket 2.8 02:44:54 14° SW 02:47:03 35° WNW 02:49:46 10° N
Meteor 2-5 Rocket 4.0 02:43:48 10° S 02:49:43 83° E 02:55:43 10° NNE
SL-4 R/B 4.1 02:48:07 10° S 02:51:07 18° SE 02:54:12 10° E
Okean 2 Rocket 3.2 02:48:19 10° N 02:52:44 78° ENE 02:57:08 10° SSE
Cosmos 1408 2.9 02:53:36 12° SW 02:56:08 36° WNW 02:58:58 10° N
Cosmos 2074 Rocket 4.3 02:50:51 10° S 02:57:02 73° E 03:03:15 10° NNE
Cosmos 1674 Rocket 4.1 02:54:07 10° S 02:58:30 60° E 03:02:52 10° NNE
Cosmos 1570 Rocket 4.1 02:53:23 10° NNW 02:58:43 88° WSW 03:04:03 10° SSE
ADEOS II 2.2 02:54:03 10° NNE 02:59:17 70° WNW 03:04:30 10° SSW
Lacrosse 5 rocket 2.8 02:58:47 10° W 03:01:22 17° SW 03:03:54 10° SSW
Cosmos 2208 Rocket 4.3 02:56:31 10° NNW 03:01:53 78° ENE 03:07:06 10° SSE
IDEFIX/ARIANE 42P 3.5 02:59:11 10° N 03:03:58 36° WNW 03:08:43 10° SW
Cosmos 1833 4.3 02:58:51 10° SSW 03:04:31 79° ESE 03:10:11 10° NNE
ALOS 2.3 03:00:00 10° NNE 03:04:40 85° ESE 03:09:17 10° SSW
Cosmos 405 Rocket 2.5 03:08:25 10° NNW 03:12:01 77° W 03:15:39 10° S
Cosmos 2184 Rocket 4.1 03:08:58 10° S 03:15:12 89° W 03:21:33 10° N
Cosmos 1378 Rocket 3.5 03:11:22 10° SSW 03:15:40 81° W 03:19:59 10° N
